Webcams

EDPO Webcam Blick Richtung Osten (local time)

Webcam

Info zum Bild:

  • Blick zum Kloster Mariahilf, Entfernung ca. 3km
  • Blick zur Kirche St. Johannes, Entfernung ca. 1km
  • Blick zu den beiden Windrädern, Entfernung ca. 6km

EDPO Webcam Blick Richtung Westen (local time)

Webcam

Info zum Bild:

  • Blick zum Tyrolsberg, Entfernung ca. 3,5km

Dillberg Webcam Blick Richtung Westen zum Sender (local time)

Webcam

Info zum Bild:

  • Blick zum Dillberg Sender, Entfernung ca. 0,6 km
  • Höhe 2.716 ft über MSL Hindernis Höhe Sender (laut ICAO Karte)
  • Höhe 1.322 ft über EDPO Höhe Sender
  • Nord Platzrundenhöhe EDPO 2.200 ft

Dillberg Webcam Blick Richtung Osten zu EDPO (local time)

Webcam

Info zum Bild:

  • Blick vom Dillberg Richtung Neumarkt, Höhe 555ft über EDPO

Nürnberger Fernsehturm (Rundum CAM)


METAR Informationen der nächstgelegenen Flughäfen


EDDN / Flughafen Nürnberg „Albrecht Dürer“

EDDN 240820Z AUTO 19005KT 140V230 9999 FEW016 17/14 Q1007 BECMG 26010KT

ETIC / Fliegerhorst Grafenwöhr AAF

ETIC 240756Z AUTO 26006KT 9999 FEW024 BKN047 BKN055 BKN075 OVC120 17/12 A2972 RMK AO2 SLP056 T01680119 $

ETIH / Fliegerhorst Hohenfels AAF

ETIH 240756Z AUTO 25004KT M +DZ SCT039 SCT070 BKN090 16/13 A2976 RMK AO2 RAB0657E10DZB10E13DZB52 SLP072 P0000 T01560127 RVRNO $